THORAD DELTA 1 DEB, 8163

Orbit data source: Space-Track

THORAD DELTA 1 DEB, 8163 is space debris in SSO originally from a launch on Fri, 15 Nov 1974 UTC launched from the Air Force Western Test Range (AFWTR). Debris objects in space refer to the collection of defunct objects orbiting the Earth. Examples of debris include non-operational satellites, rocket bodies, and fragments generated from explosions, collisions, or faulty payload assembly.

Loading next visibility...
Identifier
8163, 1974-089AD
Orbit
SSO
Country
Flag of USUS
Related business
Manufacturer
Unknown
Mission
Spacecraft
Bus & Motor
Unknown
Mass
Unknown
Launch date (UTC)
1974-11-15 (51 years ago)
Launch vehicle
Unknown
Launch site
Air Force Western Test Range (AFWTR)
Object type
Payload
Rocket body
Debris
Shape & HBR
Unknown shape, 1.1 m
Radar Cross Section
Small (<0.1 m²)

Expand to show TLE details & history
Last TLE update: 3 days ago

TLE from 3 days ago
0 THORAD DELTA 1 DEB
1  8163U 74089AD  26060.96577963  .00000562  00000-0  38613-2 0  9998
2  8163 102.4912  80.5913 0320470 252.7092 103.8674 12.39340971297408
Epoch: 2026-03-01T23:10Z
TLE epoch observation values (Epoch: 2026-03-01T23:10:43.360Z)
Latitude
0.00006°
Longitude
-66.85535°
Altitude
1,580.065 km
Speed
7.048 km/s
True Right ascension
05h 22m 21s
True Declination
0° 00' 00"
Sunlit
Object was in daylight at epoch
Visualization orbit readout
Latitude
Unknown
Longitude
Unknown
Altitude
Unknown
Speed
Unknown
Apparent Right ascension
Unknown
Apparent Declination
Unknown
Sunlit
N/A
Visualization observer readout
Local Sidereal Time
20:15:47
Azimuth
Unknown
Elevation
Unknown
Doppler factor
Unknown
Orbital elements
Apogee altitude
1,759.695 km
Perigee altitude
1,254.305 km
Semi-major axis
7,885.137 km
Eccentricity
0.03205
Inclination
102.4912°
RAAN
80.5913°
Arg. of periapsis
252.7092°
True anomaly
107.39653°
Mean anomaly
103.8674°
Eccentric anomaly
105.63561°
Mean motion
3.09977 °/min
Orbital period
116.14 mins
BSTAR
0.0038613
Loading maneuver chart data...
Computing Atmospheric mass density...

Documentation

Showing up to 5 results
|